| time (UTC) | temp F | wind direction | speed MPH | gust MPH | rain 1hr in | rain 24hr in | rain mn in | humidity % | barometer mb |
| 20260508183111 | 49 | 23 | 7.0 | 11.0 | 0.00 | 0.75 | 0.00 | 80 | 1001.5 |
| 20260508181609 | 50 | 56 | 6.0 | 15.0 | 0.00 | 0.75 | 0.00 | 79 | 1001.6 |
| 20260508180052 | 50 | 46 | 6.0 | 13.0 | 0.00 | 0.75 | 0.00 | 80 | 1001.7 |
| 20260508174550 | 50 | 55 | 6.0 | 14.0 | 0.00 | 0.75 | 0.00 | 81 | 1001.6 |
| 20260508173048 | 49 | 55 | 6.0 | 11.0 | 0.00 | 0.75 | 0.00 | 79 | 1001.6 |
| 20260508171551 | 49 | 35 | 5.0 | 9.0 | 0.00 | 0.75 | 0.00 | 82 | 1001.9 |
| 20260508170042 | 48 | 23 | 4.0 | 9.0 | 0.00 | 0.75 | 0.00 | 86 | 1002.0 |
| 20260508164541 | 46 | 23 | 3.0 | 9.0 | 0.00 | 0.75 | 0.00 | 87 | 1001.9 |
| 20260508163046 | 46 | 23 | 2.0 | 8.0 | 0.00 | 0.75 | 0.00 | 87 | 1001.9 |
| 20260508161541 | 46 | 23 | 5.0 | 9.0 | 0.00 | 0.75 | 0.00 | 87 | 1001.9 |
| 20260508160041 | 47 | 23 | 3.0 | 9.0 | 0.00 | 0.75 | 0.00 | 86 | 1001.9 |
| 20260508154539 | 47 | 23 | 3.0 | 8.0 | 0.00 | 0.75 | 0.00 | 89 | 1001.9 |
| 20260508153039 | 46 | 23 | 3.0 | 8.0 | 0.00 | 0.75 | 0.00 | 88 | 1001.8 |
| 20260508151544 | 46 | 23 | 3.0 | 9.0 | 0.00 | 0.75 | 0.00 | 87 | 1001.8 |
| 20260508150043 | 46 | 31 | 6.0 | 10.0 | 0.00 | 0.75 | 0.00 | 87 | 1002.0 |
| 20260508144545 | 46 | 32 | 6.0 | 11.0 | 0.00 | 0.75 | 0.00 | 88 | 1002.1 |
| 20260508143046 | 47 | 34 | 6.0 | 10.0 | 0.00 | 0.75 | 0.00 | 87 | 1002.0 |
| 20260508141536 | 47 | 23 | 4.0 | 12.0 | 0.00 | 0.75 | 0.00 | 88 | 1002.5 |
| 20260508140042 | 47 | 6 | 6.0 | 11.0 | 0.00 | 0.75 | 0.00 | 88 | 1002.6 |
| 20260508134534 | 48 | 18 | 7.0 | 10.0 | 0.00 | 0.75 | 0.00 | 86 | 1002.8 |
| 20260508133039 | 47 | 29 | 4.0 | 11.0 | 0.00 | 0.75 | 0.00 | 89 | 1002.9 |
| 20260508131534 | 47 | 18 | 4.0 | 10.0 | 0.00 | 0.75 | 0.00 | 89 | 1002.6 |
| 20260508130031 | 45 | 27 | 3.0 | 9.0 | 0.00 | 0.75 | 0.00 | 91 | 1002.3 |
| 20260508124530 | 44 | 32 | 4.0 | 9.0 | 0.00 | 0.76 | 0.00 | 92 | 1002.3 |
| 20260508123032 | 45 | 29 | 4.0 | 9.0 | 0.00 | 0.76 | 0.00 | 92 | 1002.4 |
| 20260508121529 | 45 | 28 | 6.0 | 11.0 | 0.00 | 0.76 | 0.00 | 94 | 1002.3 |
| 20260508120027 | 45 | 353 | 4.0 | 8.0 | 0.00 | 0.76 | 0.00 | 98 | 1002.5 |
| 20260508114533 | 44 | 350 | 3.0 | 6.0 | 0.00 | 0.76 | 0.00 | 100 | 1002.8 |
| 20260508113041 | 43 | 348 | 3.0 | 6.0 | 0.00 | 0.76 | 0.00 | 100 | 1002.3 |
| 20260508111525 | 42 | 348 | 3.0 | 6.0 | 0.00 | 0.76 | 0.00 | 100 | 1002.5 |
| 20260508110020 | 40 | 348 | 1.0 | 4.0 | 0.00 | 0.76 | 0.00 | 100 | 1002.5 |
| 20260508104519 | 40 | 348 | 2.0 | 3.0 | 0.00 | 0.76 | 0.00 | 100 | 1002.8 |
| 20260508103017 | 40 | 348 | 0.0 | 0.0 | 0.00 | 0.76 | 0.00 | 100 | 1002.9 |
| 20260508101516 | 40 | 348 | 0.0 | 0.0 | 0.00 | 0.76 | 0.00 | 100 | 1002.7 |
| 20260508100013 | 39 | 348 | 0.0 | 0.0 | 0.00 | 0.76 | 0.00 | 100 | 1002.8 |
| 20260508094511 | 39 | 348 | 0.0 | 0.0 | 0.00 | 0.76 | 0.00 | 100 | 1002.4 |
| 20260508093013 | 39 | 348 | 0.0 | 0.0 | 0.00 | 0.76 | 0.00 | 100 | 1002.4 |
| 20260508091507 | 39 | 348 | 0.0 | 0.0 | 0.00 | 0.76 | 0.00 | 100 | 1002.2 |
| 20260508090005 | 39 | 348 | 0.0 | 2.0 | 0.00 | 0.76 | 0.00 | 100 | 1002.4 |
| 20260508084504 | 39 | 348 | 0.0 | 0.0 | 0.00 | 0.82 | 0.00 | 100 | 1002.4 |
| 20260508083001 | 39 | 348 | 0.0 | 2.0 | 0.00 | 0.82 | 0.00 | 100 | 1001.9 |
| 20260508081616 | 39 | 348 | 2.0 | 4.0 | 0.00 | 0.82 | 0.00 | 100 | 1001.8 |
| 20260508080059 | 39 | 348 | 1.0 | 5.0 | 0.00 | 0.82 | 0.00 | 100 | 1001.7 |
| 20260508074600 | 39 | 348 | 0.0 | 3.0 | 0.00 | 0.82 | 0.00 | 100 | 1001.9 |
| 20260508073105 | 39 | 348 | 0.0 | 3.0 | 0.00 | 0.82 | 0.00 | 100 | 1001.9 |
| 20260508071556 | 39 | 348 | 2.0 | 4.0 | 0.00 | 0.82 | 0.00 | 100 | 1002.0 |
| 20260508070059 | 40 | 348 | 2.0 | 6.0 | 0.00 | 0.82 | 0.00 | 100 | 1001.9 |
| 20260508064604 | 40 | 348 | 2.0 | 6.0 | 0.00 | 0.82 | 0.00 | 100 | 1001.9 |
| 20260508063050 | 41 | 347 | 3.0 | 5.0 | 0.00 | 0.82 | 0.00 | 100 | 1001.9 |
| 20260508061556 | 41 | 347 | 2.0 | 6.0 | 0.00 | 0.82 | 0.00 | 100 | 1002.1 |
| 20260508060047 | 43 | 347 | 4.0 | 10.0 | 0.00 | 0.82 | 0.00 | 100 | 1001.8 |
| 20260508054603 | 44 | 256 | 3.0 | 6.0 | 0.00 | 0.82 | 0.00 | 100 | 1002.0 |
| 20260508053035 | 44 | 256 | 2.0 | 4.0 | 0.00 | 0.82 | 0.00 | 100 | 1001.9 |
| 20260508051533 | 46 | 256 | 1.0 | 4.0 | 0.00 | 0.82 | 0.00 | 100 | 1001.4 |
| 20260508050036 | 46 | 256 | 1.0 | 3.0 | 0.00 | 0.82 | 0.00 | 100 | 1001.3 |
| 20260508044527 | 47 | 256 | 0.0 | 0.0 | 0.00 | 0.82 | 0.00 | 100 | 1001.5 |
| 20260508043031 | 48 | 256 | 0.0 | 6.0 | 0.00 | 0.82 | 0.00 | 100 | 1001.6 |
| 20260508041521 | 48 | 250 | 1.0 | 2.0 | 0.00 | 0.82 | 0.00 | 100 | 1001.7 |
| 20260508040020 | 48 | 250 | 0.0 | 4.0 | 0.00 | 0.82 | 0.00 | 100 | 1001.6 |
| 20260508034524 | 48 | 250 | 1.0 | 4.0 | 0.00 | 0.82 | 0.00 | 100 | 1001.9 |
| 20260508033016 | 48 | 250 | 2.0 | 6.0 | 0.00 | 0.82 | 0.00 | 100 | 1001.9 |
| 20260508031515 | 48 | 250 | 3.0 | 4.0 | 0.00 | 0.82 | 0.00 | 100 | 1002.0 |
| 20260508030012 | 48 | 250 | 2.0 | 7.0 | 0.00 | 0.82 | 0.00 | 100 | 1002.0 |
| 20260508024513 | 48 | 245 | 3.0 | 7.0 | 0.00 | 0.82 | 0.82 | 100 | 1002.0 |
| 20260508023012 | 49 | 242 | 3.0 | 8.0 | 0.00 | 0.82 | 0.82 | 100 | 1001.5 |
| 20260508021509 | 49 | 202 | 2.0 | 4.0 | 0.00 | 0.82 | 0.82 | 100 | 1001.7 |
| 20260508020012 | 50 | 202 | 0.0 | 6.0 | 0.00 | 0.82 | 0.82 | 100 | 1001.8 |
| 20260508014509 | 49 | 201 | 0.0 | 4.0 | 0.00 | 0.82 | 0.82 | 100 | 1001.7 |
| 20260508013008 | 49 | 201 | 0.0 | 4.0 | 0.00 | 0.82 | 0.82 | 100 | 1001.6 |
| 20260508011509 | 49 | 201 | 1.0 | 6.0 | 0.00 | 0.82 | 0.82 | 100 | 1001.5 |
| 20260508010020 | 49 | 202 | 2.0 | 6.0 | 0.00 | 0.82 | 0.82 | 100 | 1002.0 |
| 20260508004506 | 48 | 202 | 2.0 | 6.0 | 0.00 | 0.82 | 0.82 | 100 | 1001.9 |
| 20260508003006 | 48 | 202 | 2.0 | 7.0 | 0.00 | 0.82 | 0.82 | 100 | 1001.8 |
| 20260508001508 | 48 | 187 | 2.0 | 9.0 | 0.00 | 0.82 | 0.82 | 100 | 1001.8 |
| 20260508000006 | 49 | 203 | 1.0 | 8.0 | 0.00 | 0.82 | 0.82 | 100 | 1002.1 |
| 20260507234508 | 49 | 199 | 3.0 | 12.0 | 0.00 | 0.82 | 0.82 | 99 | 1001.9 |
| 20260507233005 | 49 | 197 | 3.0 | 11.0 | 0.00 | 0.82 | 0.82 | 99 | 1002.0 |
| 20260507231503 | 49 | 191 | 5.0 | 12.0 | 0.00 | 0.82 | 0.82 | 99 | 1002.5 |
| 20260507230003 | 50 | 192 | 4.0 | 11.0 | 0.00 | 0.82 | 0.82 | 99 | 1002.3 |
| 20260507224503 | 50 | 191 | 5.0 | 15.0 | 0.00 | 0.82 | 0.82 | 99 | 1002.7 |
| 20260507223002 | 50 | 221 | 4.0 | 10.0 | 0.00 | 0.82 | 0.82 | 98 | 1002.4 |
| 20260507221501 | 50 | 195 | 5.0 | 17.0 | 0.00 | 0.82 | 0.82 | 99 | 1002.6 |
| 20260507220100 | 50 | 218 | 8.0 | 19.0 | 0.00 | 0.82 | 0.82 | 99 | 1002.7 |
| 20260507214600 | 49 | 256 | 6.0 | 14.0 | 0.03 | 0.82 | 0.82 | 99 | 1002.9 |
| 20260507213059 | 49 | 214 | 6.0 | 20.0 | 0.09 | 0.82 | 0.82 | 99 | 1002.4 |
| 20260507211601 | 49 | 196 | 8.0 | 20.0 | 0.17 | 0.82 | 0.82 | 99 | 1001.8 |
| 20260507210053 | 49 | 183 | 8.0 | 18.0 | 0.24 | 0.82 | 0.82 | 99 | 1002.4 |
| 20260507204550 | 50 | 179 | 5.0 | 11.0 | 0.31 | 0.79 | 0.79 | 99 | 1003.4 |
| 20260507203048 | 51 | 187 | 5.0 | 12.0 | 0.39 | 0.72 | 0.72 | 99 | 1003.7 |
| 20260507201545 | 51 | 184 | 5.0 | 10.0 | 0.39 | 0.65 | 0.65 | 98 | 1004.0 |
| 20260507200042 | 51 | 233 | 2.0 | 15.0 | 0.38 | 0.57 | 0.57 | 99 | 1004.8 |
| 20260507194541 | 51 | 250 | 5.0 | 16.0 | 0.31 | 0.46 | 0.46 | 98 | 1005.0 |
| 20260507193046 | 51 | 229 | 8.0 | 17.0 | 0.24 | 0.34 | 0.34 | 98 | 1004.7 |
| 20260507191538 | 52 | 203 | 9.0 | 19.0 | 0.17 | 0.24 | 0.24 | 97 | 1004.8 |
| 20260507190039 | 52 | 215 | 10.0 | 24.0 | 0.13 | 0.20 | 0.20 | 97 | 1004.8 |
| 20260507184536 | 52 | 154 | 9.0 | 15.0 | 0.08 | 0.15 | 0.15 | 97 | 1005.0 |